• en Belgique
  • Liste des pays
  • À 7 jours
  • Température de l'eau
  • Carte satellitaire
  • Carte météo
  • Widgets météo
  • user-avatar
    Se connecter

    Météo par heure à Albany

    Ce jour, 25 Juin, Dimanche

    Heure Température Précipitation Vent Pression Humidité
    00:00 +13°C° 0 mm 3 m/s 767 mmHg 74%
    01:00 +14°C° 0 mm 2 m/s 767 mmHg 74%
    02:00 +14°C° 0 mm 2 m/s 767 mmHg 74%
    03:00 +14°C° 0 mm 2 m/s 766 mmHg 74%
    04:00 +13°C° 0 mm 2 m/s 766 mmHg 75%
    05:00 +13°C° 0 mm 2 m/s 766 mmHg 76%
    06:00 +13°C° 0,1 mm 2 m/s 766 mmHg 78%
    07:00 +13°C° 0,1 mm 2 m/s 766 mmHg 79%
    08:00 +13°C° 0,1 mm 2 m/s 767 mmHg 81%
    09:00 +14°C° 0,2 mm 2 m/s 767 mmHg 79%
    10:00 +14°C° 0,2 mm 2 m/s 767 mmHg 78%
    11:00 +15°C° 0,2 mm 2 m/s 767 mmHg 77%
    12:00 +15°C° 0,2 mm 2 m/s 767 mmHg 78%
    13:00 +14°C° 0,2 mm 3 m/s 766 mmHg 79%
    14:00 +14°C° 0,2 mm 3 m/s 766 mmHg 80%
    15:00 +14°C° 0,2 mm 2 m/s 766 mmHg 82%
    16:00 +14°C° 0,2 mm 2 m/s 766 mmHg 84%
    17:00 +13°C° 0,2 mm 2 m/s 766 mmHg 86%
    18:00 +13°C° 0,2 mm 2 m/s 766 mmHg 86%
    19:00 +13°C° 0,2 mm 2 m/s 767 mmHg 87%
    20:00 +12°C° 0,2 mm 2 m/s 767 mmHg 87%
    21:00 +12°C° 0,1 mm 1 m/s 767 mmHg 87%
    22:00 +12°C° 0,1 mm 1 m/s 767 mmHg 87%
    23:00 +11°C° 0,1 mm 1 m/s 767 mmHg 88%

    Demain, 26 Juin, Lundi

    Heure Température Précipitation Vent Pression Humidité
    00:00 +11°C° 0 mm 1 m/s 767 mmHg 88%
    01:00 +11°C° 0 mm 1 m/s 766 mmHg 88%
    02:00 +12°C° 0 mm 1 m/s 766 mmHg 88%
    03:00 +10°C° 0 mm 2 m/s 766 mmHg 89%
    04:00 +10°C° 0 mm 2 m/s 766 mmHg 89%
    05:00 +10°C° 0 mm 2 m/s 766 mmHg 90%
    06:00 +10°C° 0,1 mm 3 m/s 766 mmHg 90%
    07:00 +10°C° 0,1 mm 3 m/s 766 mmHg 90%
    08:00 +10°C° 0,1 mm 3 m/s 766 mmHg 90%
    09:00 +11°C° 0,2 mm 3 m/s 766 mmHg 85%
    10:00 +13°C° 0,2 mm 4 m/s 767 mmHg 80%
    11:00 +14°C° 0,2 mm 4 m/s 767 mmHg 75%
    12:00 +14°C° 0,5 mm 5 m/s 766 mmHg 77%
    13:00 +14°C° 0,5 mm 5 m/s 766 mmHg 79%
    14:00 +14°C° 0,5 mm 5 m/s 765 mmHg 80%
    15:00 +14°C° 0,3 mm 5 m/s 765 mmHg 82%
    16:00 +13°C° 0,3 mm 5 m/s 766 mmHg 84%
    17:00 +12°C° 0,3 mm 5 m/s 766 mmHg 86%
    18:00 +12°C° 0,1 mm 5 m/s 766 mmHg 85%
    19:00 +12°C° 0,1 mm 4 m/s 766 mmHg 83%
    20:00 +12°C° 0,1 mm 4 m/s 767 mmHg 82%
    21:00 +12°C° 0,1 mm 4 m/s 767 mmHg 83%
    22:00 +11°C° 0,1 mm 4 m/s 767 mmHg 84%
    23:00 +11°C° 0,1 mm 4 m/s 767 mmHg 85%

    Après-demain, 27 Juin, Mardi

    Heure Température Précipitation Vent Pression Humidité
    00:00 +11°C° 0,1 mm 4 m/s 767 mmHg 87%
    01:00 +11°C° 0,1 mm 4 m/s 767 mmHg 88%
    02:00 +11°C° 0,1 mm 4 m/s 767 mmHg 89%
    03:00 +10°C° 0,3 mm 5 m/s 767 mmHg 90%
    04:00 +12°C° 0,3 mm 5 m/s 767 mmHg 90%
    05:00 +12°C° 0,3 mm 5 m/s 767 mmHg 90%
    06:00 +12°C° 0,2 mm 5 m/s 768 mmHg 89%
    07:00 +12°C° 0,2 mm 5 m/s 768 mmHg 89%
    08:00 +12°C° 0,2 mm 5 m/s 768 mmHg 88%
    09:00 +13°C° 0,1 mm 5 m/s 769 mmHg 83%
    10:00 +13°C° 0,1 mm 5 m/s 769 mmHg 79%
    11:00 +14°C° 0,1 mm 5 m/s 770 mmHg 75%
    12:00 +14°C° 0 mm 5 m/s 769 mmHg 71%
    13:00 +14°C° 0 mm 5 m/s 769 mmHg 67%
    14:00 +15°C° 0 mm 5 m/s 769 mmHg 64%
    15:00 +14°C° 0 mm 5 m/s 769 mmHg 66%
    16:00 +14°C° 0 mm 4 m/s 770 mmHg 69%
    17:00 +13°C° 0 mm 4 m/s 770 mmHg 71%
    18:00 +13°C° 0 mm 4 m/s 771 mmHg 71%
    19:00 +13°C° 0 mm 4 m/s 771 mmHg 72%
    20:00 +12°C° 0 mm 3 m/s 772 mmHg 72%
    21:00 +12°C° 0 mm 3 m/s 772 mmHg 74%
    22:00 +11°C° 0 mm 3 m/s 772 mmHg 76%
    23:00 +10°C° 0 mm 3 m/s 772 mmHg 78%

    28 Juin, Mercredi

    Heure Température Précipitation Vent Pression Humidité
    00:00 +10°C° 0 mm 3 m/s 772 mmHg 80%
    01:00 +10°C° 0 mm 2 m/s 772 mmHg 81%
    02:00 +9°C° 0 mm 2 m/s 772 mmHg 83%
    03:00 +9°C° 0 mm 2 m/s 772 mmHg 84%
    04:00 +8°C° 0 mm 2 m/s 772 mmHg 86%
    05:00 +8°C° 0 mm 2 m/s 772 mmHg 87%
    06:00 +8°C° 0 mm 2 m/s 772 mmHg 87%
    07:00 +8°C° 0 mm 2 m/s 772 mmHg 86%
    08:00 +8°C° 0 mm 2 m/s 772 mmHg 86%
    09:00 +10°C° 0 mm 2 m/s 772 mmHg 77%
    10:00 +13°C° 0 mm 2 m/s 772 mmHg 68%
    11:00 +14°C° 0 mm 2 m/s 772 mmHg 59%
    12:00 +15°C° 0 mm 2 m/s 772 mmHg 54%
    13:00 +16°C° 0 mm 2 m/s 771 mmHg 50%
    14:00 +18°C° 0 mm 1 m/s 771 mmHg 46%
    15:00 +15°C° 0 mm 2 m/s 771 mmHg 52%
    16:00 +14°C° 0 mm 2 m/s 771 mmHg 57%
    17:00 +12°C° 0 mm 2 m/s 770 mmHg 63%
    18:00 +11°C° 0 mm 3 m/s 771 mmHg 65%
    19:00 +10°C° 0 mm 3 m/s 771 mmHg 67%
    20:00 +10°C° 0 mm 3 m/s 771 mmHg 69%
    21:00 +10°C° 0 mm 4 m/s 771 mmHg 69%
    22:00 +8°C° 0 mm 4 m/s 770 mmHg 70%
    23:00 +8°C° 0 mm 4 m/s 770 mmHg 70%

    29 Juin, Jeudi

    Heure Température Précipitation Vent Pression Humidité
    00:00 +8°C° 0 mm 4 m/s 770 mmHg 69%
    01:00 +7°C° 0 mm 4 m/s 769 mmHg 69%
    02:00 +7°C° 0 mm 4 m/s 769 mmHg 68%
    03:00 +7°C° 0 mm 4 m/s 769 mmHg 67%
    04:00 +7°C° 0 mm 5 m/s 768 mmHg 66%
    05:00 +7°C° 0 mm 5 m/s 768 mmHg 65%
    06:00 +7°C° 0 mm 5 m/s 768 mmHg 64%
    07:00 +7°C° 0 mm 5 m/s 768 mmHg 63%
    08:00 +7°C° 0 mm 5 m/s 768 mmHg 61%
    09:00 +9°C° 0 mm 6 m/s 768 mmHg 55%
    10:00 +11°C° 0 mm 6 m/s 767 mmHg 49%
    11:00 +14°C° 0 mm 6 m/s 767 mmHg 42%
    12:00 +15°C° 0 mm 6 m/s 766 mmHg 41%
    13:00 +16°C° 0 mm 6 m/s 765 mmHg 39%
    14:00 +17°C° 0 mm 5 m/s 764 mmHg 37%
    15:00 +15°C° 0 mm 5 m/s 764 mmHg 41%
    16:00 +14°C° 0 mm 5 m/s 764 mmHg 45%
    17:00 +13°C° 0 mm 4 m/s 764 mmHg 50%
    18:00 +13°C° 0 mm 5 m/s 764 mmHg 52%
    19:00 +12°C° 0 mm 5 m/s 764 mmHg 55%
    20:00 +10°C° 0 mm 5 m/s 764 mmHg 57%
    21:00 +11°C° 0 mm 6 m/s 763 mmHg 57%
    22:00 +11°C° 0 mm 6 m/s 763 mmHg 57%
    23:00 +11°C° 0 mm 6 m/s 763 mmHg 57%

    30 Juin, Vendredi

    Heure Température Précipitation Vent Pression Humidité
    00:00 +11°C° 0 mm 6 m/s 762 mmHg 57%
    01:00 +11°C° 0 mm 7 m/s 762 mmHg 56%
    02:00 +11°C° 0 mm 7 m/s 761 mmHg 55%
    03:00 +11°C° 0 mm 7 m/s 761 mmHg 56%
    04:00 +11°C° 0 mm 7 m/s 761 mmHg 56%
    05:00 +12°C° 0 mm 7 m/s 761 mmHg 56%
    06:00 +12°C° 0 mm 7 m/s 761 mmHg 59%
    07:00 +12°C° 0 mm 7 m/s 761 mmHg 61%
    08:00 +12°C° 0 mm 7 m/s 761 mmHg 63%
    09:00 +14°C° 0,2 mm 7 m/s 761 mmHg 64%
    10:00 +15°C° 0,2 mm 7 m/s 761 mmHg 65%
    11:00 +16°C° 0,2 mm 7 m/s 761 mmHg 66%
    12:00 +16°C° 0,6 mm 6 m/s 761 mmHg 72%
    13:00 +15°C° 0,6 mm 6 m/s 761 mmHg 78%
    14:00 +14°C° 0,6 mm 6 m/s 761 mmHg 84%
    15:00 +14°C° 0,5 mm 6 m/s 761 mmHg 85%
    16:00 +13°C° 0,5 mm 5 m/s 762 mmHg 85%
    17:00 +13°C° 0,5 mm 4 m/s 762 mmHg 86%
    18:00 +12°C° 0 mm 4 m/s 763 mmHg 84%
    19:00 +12°C° 0 mm 4 m/s 763 mmHg 82%
    20:00 +12°C° 0 mm 3 m/s 764 mmHg 80%
    21:00 +12°C° 0 mm 3 m/s 764 mmHg 79%
    22:00 +11°C° 0 mm 3 m/s 764 mmHg 78%
    23:00 +11°C° 0 mm 3 m/s 764 mmHg 78%
    Voir plus